Wind_Speed
36 34 32 31 31 31 31 31 32 33 33 32 33 33 32 31 29 28 27 27 25 23 23 23 24 26 27 27 27 27 26 25 26 27 28 30 32 34 36 35 35 33 33 33
38 36 34 33 33 33 32 32 33 34 35 35 36 35 35 34 33 32 31 30 29 28 27 27 27 28 29 30 30 30 29 29 30 31 32 33 36 37 38 38 36 35 33 31
36 36 35 34 34 33 33 33 33 34 36 36 37 36 37 37 37 36 35 34 33 32 31 30 30 30 30 31 32 32 31 31 33 34 35 35 37 39 41 41 39 37 33 28
36 37 35 35 35 34 33 33 34 35 36 37 39 37 37 39 39 38 38 37 37 36 34 34 33 31 31 32 32 33 33 33 35 36 36 37 39 41 42 42 40 37 31 29
34 35 35 35 34 33 33 33 34 35 36 38 39 38 35 38 39 39 39 39 39 38 36 35 34 33 33 33 33 34 35 35 36 37 38 39 41 42 42 41 39 35 32 29
33 33 33 33 33 33 33 34 34 35 36 38 37 37 35 37 38 39 40 39 39 38 37 36 35 34 34 35 35 36 37 38 39 39 40 41 42 42 42 40 39 38 34 32
29 30 31 31 32 32 33 32 32 32 34 33 34 36 35 40 37 37 38 38 38 37 36 35 35 35 35 36 37 37 38 39 40 41 42 42 42 42 42 41 40 38 36 35
22 23 27 28 28 29 30 30 29 25 23 24 31 32 37 37 35 34 34 35 35 35 34 34 34 34 35 35 35 36 37 39 40 41 42 42 42 41 40 41 40 40 39 39
15 16 22 25 26 27 28 29 27 28 26 23 22 31 35 33 32 31 31 31 30 30 30 30 30 31 31 32 33 35 36 38 39 40 41 42 42 41 41 41 41 41 42 43
14 14 16 20 24 26 26 25 28 30 27 23 22 24 27 30 28 27 27 27 27 27 27 27 27 28 29 30 32 33 35 37 38 40 41 42 42 42 42 43 43 44 46 47
14 14 14 17 20 21 25 27 28 27 25 22 19 21 27 27 26 25 25 25 25 25 25 26 27 27 29 30 32 33 35 36 38 39 40 41 42 42 44 45 47 48 50 51
13 14 15 16 19 21 23 24 26 26 26 26 21 23 26 25 24 24 24 24 24 24 24 25 27 28 29 31 33 34 35 37 38 39 40 42 43 45 46 48 50 51 53 55
13 14 14 15 18 22 24 25 26 27 26 25 23 26 27 25 25 25 25 25 26 26 27 28 29 30 32 33 35 36 38 39 40 41 43 44 46 47 49 51 53 55 56 56
14 15 15 16 18 20 23 25 26 26 24 25 26 29 29 28 27 28 28 28 29 30 31 32 33 34 35 36 38 39 40 42 43 44 45 47 49 51 53 54 55 56 57 57
14 16 18 20 20 21 22 24 26 27 28 28 29 31 31 31 31 31 31 32 33 34 34 35 36 37 38 39 41 42 43 44 46 47 48 49 51 52 54 55 56 57 57 58
14 15 17 19 21 23 24 25 26 28 29 30 31 33 33 33 33 33 34 35 36 37 38 39 40 40 41 42 43 44 45 45 46 47 49 50 52 53 55 56 56 56 57 56
15 16 17 19 21 23 25 27 27 28 30 31 32 34 34 35 35 35 36 37 37 38 39 38 40 40 41 42 42 43 43 45 46 48 49 51 53 54 55 55 55 55 55 54
13 15 17 19 19 22 26 26 27 29 30 32 33 34 34 34 35 35 35 35 35 35 37 38 38 39 40 41 42 43 44 45 47 49 50 52 53 53 53 53 53 52 51 50
11 13 15 17 19 22 23 25 26 28 30 31 32 33 33 33 34 33 34 35 35 35 36 36 37 38 40 41 42 43 45 46 48 49 50 50 50 51 51 50 49 49 48 48
10 10 12 14 16 19 20 20 22 24 27 27 28 29 29 30 31 31 31 32 34 34 35 36 37 39 40 41 42 44 45 46 47 47 48 48 48 48 47 47 46 46 46 46
9 9 10 12 14 16 16 17 18 21 24 23 24 26 27 28 29 30 30 32 33 34 35 36 37 38 39 40 42 42 43 44 44 44 45 44 44 44 44 44 44 44 44 44
10 9 10 10 12 14 14 14 16 19 20 21 22 23 24 25 27 28 29 30 31 32 33 34 35 36 37 38 39 40 40 41 41 41 41 41 41 42 42 42 42 43 43 43
10 10 10 11 12 13 13 14 15 16 17 19 20 21 22 23 25 26 27 28 29 30 31 32 33 34 35 36 37 37 37 37 37 38 39 39 40 41 41 42 41 41 40 38
11 10 10 10 11 12 13 13 14 15 17 18 19 21 22 23 24 25 26 27 28 29 30 30 31 32 33 33 34 34 34 34 35 36 37 39 40 40 40 39 37 35 33 31
10 9 9 10 10 11 12 12 13 13 14 16 18 20 20 21 22 22 23 24 25 25 26 27 28 28 29 29 29 30 32 33 34 36 37 38 37 36 34 32 29 27 25 23
10 9 9 10 11 11 12 12 13 14 15 15 17 17 18 19 19 20 20 20 20 21 21 22 23 23 24 26 27 29 31 32 33 34 33 33 31 29 26 24 21 19 18 16
Wind_Direction
238 240 240 240 238 236 234 233 232 234 237 237 238 238 239 242 241 241 242 245 248 253 258 261 263 264 264 265 268 271 273 275 280 284 286 289 290 291 295 294 296 294 292 289
236 238 239 239 238 237 236 234 233 235 237 238 240 240 241 243 244 244 246 248 250 254 258 262 265 263 263 264 266 269 271 275 278 280 284 287 290 292 295 298 299 301 299 295
234 236 236 237 237 237 237 235 234 234 236 239 241 243 244 245 246 247 249 251 254 256 259 263 266 264 262 262 264 266 268 272 275 279 283 288 291 294 296 299 301 304 306 303
231 234 234 235 235 236 236 235 234 234 235 238 240 240 245 246 247 249 251 253 256 258 261 263 266 264 262 262 263 264 267 271 274 278 284 288 292 294 297 299 302 307 308 308
230 232 232 233 234 234 235 234 234 235 236 237 242 241 242 249 249 251 253 254 257 259 261 263 265 263 261 261 262 263 266 270 274 278 282 286 289 292 295 297 299 304 308 308
229 230 231 231 232 232 233 234 235 236 238 240 242 244 242 248 249 251 253 256 258 259 261 262 262 260 259 260 261 263 266 268 272 276 280 284 287 289 292 295 296 299 303 305
227 230 230 230 230 231 233 233 234 236 239 242 243 244 243 248 250 251 252 255 257 259 260 260 260 258 258 259 260 262 264 267 270 274 278 281 284 286 289 292 296 298 301 304
228 231 231 231 231 232 233 233 230 230 239 242 246 244 245 250 251 251 251 253 255 257 258 258 258 257 258 258 259 260 263 265 268 272 275 279 281 284 288 291 295 298 301 303
218 225 231 230 229 228 228 229 228 229 229 227 239 246 247 249 250 250 251 252 254 255 256 256 256 256 256 256 257 259 261 263 267 270 274 277 280 285 290 293 296 299 300 301
208 216 226 226 226 226 224 225 226 227 229 233 239 251 251 248 248 249 251 252 254 255 255 255 255 255 255 256 257 259 261 263 266 270 274 278 282 287 290 293 296 298 299 300
206 211 221 222 221 222 223 223 226 228 227 229 238 244 248 250 248 249 250 252 253 254 254 255 256 256 256 257 259 260 263 266 269 273 276 280 283 288 291 294 296 297 298 299
216 216 221 224 224 220 222 224 226 227 231 232 227 242 249 250 249 249 250 252 254 255 256 257 257 258 259 260 262 264 267 269 272 275 278 283 286 289 293 295 296 297 298 299
224 225 225 231 231 227 223 223 224 229 232 238 237 245 248 250 251 251 252 254 256 258 259 260 261 263 264 266 268 269 271 273 275 278 281 285 288 290 292 295 296 297 297 298
231 229 222 225 229 234 232 229 229 232 237 243 243 246 251 252 253 254 255 257 260 262 263 265 267 268 269 270 271 273 274 276 278 280 283 286 289 291 293 294 295 296 296 297
238 234 231 232 236 235 232 232 233 235 237 240 245 250 254 255 256 257 258 260 262 264 266 267 270 271 271 272 273 275 277 279 280 282 285 288 290 291 292 293 294 295 295 296
248 245 240 239 239 238 237 235 237 238 239 243 248 251 253 256 257 259 261 262 264 266 267 269 270 272 273 274 275 276 278 280 282 285 287 288 290 291 292 292 293 294 295 295
256 255 252 248 244 245 245 243 245 246 245 247 248 251 254 255 258 261 263 264 265 266 266 267 269 270 272 273 277 280 282 284 286 287 288 289 290 291 291 292 293 294 294 295
261 259 257 252 252 250 250 250 248 250 251 251 251 253 256 258 259 261 262 264 265 267 268 270 271 272 275 279 281 283 284 286 287 288 289 290 290 291 292 292 293 294 294 294
273 265 261 256 253 257 255 252 251 251 252 253 255 256 258 259 259 259 261 265 268 270 270 272 274 277 280 282 283 284 285 287 288 289 290 291 292 293 293 293 293 293 294 294
286 274 267 264 258 256 259 255 254 254 252 252 254 255 257 259 259 260 262 264 266 269 272 274 276 279 281 283 284 286 287 289 290 291 292 293 293 293 293 293 293 294 294 294
302 287 275 270 264 263 260 256 254 251 252 253 254 255 256 257 259 261 262 264 267 272 275 276 278 281 284 285 287 289 290 291 292 293 294 294 294 294 294 294 295 295 295 295
308 298 287 278 267 264 264 260 257 256 255 254 254 256 258 260 261 263 265 268 271 274 277 279 282 285 287 289 290 291 292 293 294 294 294 294 294 295 295 295 295 296 296 297
308 301 291 282 274 269 267 264 262 260 259 258 258 260 262 263 265 267 270 272 274 277 280 282 285 288 290 292 293 293 294 295 296 296 296 296 297 297 297 297 297 298 298 298
309 304 297 288 280 276 272 270 266 263 262 263 264 265 266 268 270 271 273 275 278 281 284 286 289 290 292 293 295 296 297 298 298 299 299 299 299 300 299 299 299 299 299 299
311 306 299 293 288 283 281 276 274 275 272 270 270 270 271 273 274 275 278 281 283 285 287 289 290 292 295 297 298 300 301 302 302 303 304 304 303 303 302 302 301 301 301 301
314 306 298 292 290 287 285 281 279 280 278 277 277 276 276 277 278 278 281 283 285 288 290 293 296 299 301 302 304 305 307 308 308 309 309 309 308 307 306 305 305 304 304 303
Height
5803 5808 5812 5816 5819 5822 5826 5830 5832 5835 5837 5841 5844 5847 5850 5852 5856 5859 5862 5864 5867 5869 5870 5870 5871 5871 5871 5871 5871 5870 5869 5868 5866 5864 5862 5860 5857 5854 5852 5850 5848 5845 5842 5839
5796 5801 5805 5808 5811 5815 5819 5824 5827 5829 5831 5835 5837 5841 5844 5847 5850 5853 5855 5858 5861 5863 5864 5865 5866 5866 5866 5866 5866 5865 5864 5863 5861 5859 5857 5855 5852 5849 5846 5843 5841 5838 5835 5832
5788 5793 5796 5800 5804 5808 5813 5817 5821 5823 5825 5828 5832 5836 5838 5841 5843 5846 5849 5851 5854 5856 5858 5858 5859 5859 5860 5860 5860 5860 5859 5858 5855 5853 5852 5850 5847 5843 5842 5839 5835 5832 5829 5827
5779 5783 5788 5793 5797 5801 5806 5810 5814 5817 5820 5823 5826 5830 5832 5833 5836 5838 5841 5844 5846 5848 5850 5851 5852 5852 5853 5854 5854 5854 5853 5852 5850 5848 5846 5844 5841 5839 5836 5833 5830 5827 5825 5823
5772 5776 5781 5786 5790 5794 5799 5803 5807 5811 5814 5817 5818 5823 5827 5826 5828 5830 5833 5835 5838 5840 5842 5843 5844 5845 5846 5847 5847 5847 5847 5846 5844 5843 5841 5838 5836 5833 5830 5827 5824 5822 5819 5817
5765 5768 5773 5778 5783 5787 5792 5797 5801 5804 5807 5811 5813 5816 5820 5819 5820 5823 5825 5827 5829 5832 5833 5835 5836 5838 5839 5840 5840 5840 5839 5838 5837 5835 5833 5831 5828 5826 5823 5820 5817 5815 5813 5810
5759 5763 5767 5772 5776 5781 5786 5792 5796 5799 5802 5805 5806 5809 5812 5810 5814 5816 5818 5820 5822 5823 5825 5827 5828 5829 5831 5831 5832 5832 5831 5830 5829 5827 5825 5823 5820 5818 5815 5812 5810 5807 5805 5802
5756 5760 5762 5766 5771 5775 5780 5786 5792 5797 5800 5802 5800 5802 5802 5804 5807 5809 5811 5813 5814 5816 5817 5819 5820 5821 5822 5823 5823 5823 5823 5822 5820 5819 5816 5814 5812 5809 5807 5804 5801 5799 5796 5794
5754 5757 5758 5761 5765 5770 5774 5779 5784 5789 5791 5796 5797 5794 5796 5797 5800 5802 5804 5805 5807 5808 5810 5811 5812 5813 5814 5815 5815 5815 5814 5813 5812 5810 5808 5806 5803 5800 5798 5795 5792 5789 5786 5783
5750 5754 5755 5757 5760 5764 5769 5773 5776 5780 5785 5789 5792 5791 5791 5792 5794 5796 5797 5799 5800 5801 5802 5804 5805 5805 5806 5807 5807 5807 5806 5805 5803 5801 5799 5797 5794 5791 5788 5785 5782 5779 5776 5772
5748 5751 5753 5755 5757 5760 5763 5767 5770 5775 5780 5784 5789 5791 5784 5786 5788 5790 5791 5792 5794 5795 5796 5797 5797 5798 5799 5799 5799 5798 5797 5796 5794 5792 5790 5787 5784 5781 5778 5774 5771 5767 5764 5760
5746 5748 5751 5753 5754 5756 5759 5762 5766 5770 5773 5775 5781 5783 5779 5780 5782 5784 5785 5786 5787 5788 5789 5789 5790 5790 5790 5790 5789 5789 5788 5786 5784 5782 5780 5777 5774 5770 5767 5763 5759 5755 5751 5747
5743 5746 5748 5750 5752 5753 5754 5757 5760 5764 5767 5770 5774 5776 5773 5774 5776 5778 5779 5780 5781 5781 5782 5782 5782 5782 5781 5781 5780 5779 5778 5776 5774 5772 5769 5766 5763 5759 5755 5751 5747 5742 5738 5733
5740 5742 5746 5748 5747 5748 5750 5753 5755 5759 5762 5764 5766 5766 5767 5768 5770 5771 5772 5773 5773 5773 5773 5773 5773 5773 5772 5771 5770 5769 5767 5765 5763 5760 5758 5754 5751 5747 5743 5739 5734 5729 5724 5719
5736 5737 5739 5741 5742 5744 5746 5748 5750 5753 5755 5758 5758 5758 5760 5761 5763 5764 5764 5765 5765 5765 5764 5764 5764 5763 5762 5761 5759 5758 5756 5754 5751 5748 5746 5742 5738 5734 5730 5725 5720 5715 5710 5705
5731 5732 5734 5735 5736 5738 5740 5742 5743 5745 5747 5749 5750 5751 5752 5753 5754 5755 5756 5756 5755 5755 5755 5754 5753 5752 5751 5750 5748 5746 5744 5742 5739 5736 5733 5729 5725 5720 5716 5711 5706 5701 5696 5691
5726 5727 5729 5730 5731 5732 5734 5735 5736 5738 5739 5741 5743 5744 5744 5745 5746 5746 5747 5746 5746 5745 5744 5744 5743 5741 5740 5738 5737 5734 5732 5729 5726 5723 5719 5715 5711 5706 5701 5697 5692 5686 5681 5676
5721 5722 5723 5724 5726 5727 5728 5727 5729 5730 5731 5732 5734 5735 5736 5737 5737 5737 5737 5736 5736 5735 5734 5733 5732 5731 5729 5727 5725 5722 5719 5717 5713 5710 5705 5701 5697 5692 5687 5682 5677 5672 5667 5663
5717 5717 5718 5719 5719 5719 5720 5720 5721 5723 5723 5724 5725 5726 5727 5728 5728 5728 5728 5727 5727 5725 5724 5723 5722 5720 5718 5716 5713 5711 5708 5704 5700 5696 5692 5687 5683 5678 5673 5669 5664 5659 5654 5649
5713 5713 5713 5713 5714 5714 5714 5713 5713 5716 5715 5716 5716 5717 5718 5719 5719 5720 5719 5719 5718 5716 5715 5714 5713 5711 5708 5706 5703 5699 5696 5692 5688 5683 5679 5674 5670 5665 5660 5655 5651 5646 5641 5637
5709 5708 5708 5708 5708 5707 5708 5707 5708 5710 5709 5709 5709 5709 5710 5711 5711 5711 5710 5710 5709 5708 5707 5705 5703 5701 5698 5695 5692 5688 5685 5680 5676 5671 5666 5662 5657 5652 5648 5643 5638 5634 5629 5625
5705 5705 5704 5703 5703 5704 5702 5702 5703 5702 5702 5702 5703 5703 5703 5703 5703 5703 5703 5702 5701 5700 5698 5696 5694 5691 5688 5685 5682 5678 5674 5669 5665 5660 5655 5650 5646 5641 5636 5631 5627 5622 5618 5614
5702 5701 5700 5700 5700 5698 5697 5697 5697 5696 5696 5697 5697 5697 5697 5697 5697 5696 5696 5695 5694 5692 5690 5688 5685 5682 5679 5676 5672 5668 5664 5659 5654 5649 5645 5640 5635 5630 5625 5620 5616 5611 5607 5603
5699 5697 5696 5695 5694 5693 5693 5692 5692 5692 5692 5691 5691 5691 5691 5691 5690 5690 5689 5688 5686 5685 5683 5680 5677 5674 5671 5667 5663 5659 5655 5650 5645 5640 5634 5629 5624 5619 5614 5609 5605 5601 5597 5594
5696 5694 5693 5692 5691 5690 5689 5688 5688 5687 5687 5686 5686 5686 5685 5685 5684 5683 5682 5681 5679 5677 5675 5673 5670 5667 5664 5660 5656 5651 5646 5641 5636 5630 5625 5619 5613 5608 5604 5600 5596 5592 5589 5587
5693 5692 5691 5690 5688 5687 5686 5685 5684 5683 5683 5682 5681 5680 5680 5679 5678 5677 5676 5675 5673 5672 5670 5667 5664 5661 5657 5653 5649 5644 5639 5633 5628 5622 5616 5610 5604 5600 5596 5593 5590 5586 5584 5582